Dewpoint
-2 -2 -2 -3 -3 -3 -6 -8 -9 -8 -8 -9 -10 -13 -15 -16 -15 -13 -6 -1 0 2 3 2 2 2 1 2 3 11 17 16 11 12 12 10 9 10 12 8 8 10 12 15 14
-2 -2 -2 -3 -3 -3 -3 -6 -8 -10 -9 -10 -10 -11 -14 -16 -16 -9 -4 -3 -5 1 2 -2 -1 -2 -1 3 6 12 17 16 10 9 9 9 10 13 12 14 10 12 14 14 14
-2 -2 -3 -2 -3 -4 -4 -4 -7 -9 -10 -10 -11 -12 -13 -16 -9 -7 -5 -4 -8 2 3 -1 -2 -1 1 4 7 13 15 13 10 6 8 11 9 12 13 17 14 12 14 14 13
-2 -2 -2 -3 -3 -4 -4 -4 -5 -7 -10 -11 -11 -12 -12 -14 -3 -3 -5 -8 -7 -3 -1 0 -2 -1 -0 4 6 8 8 6 7 6 9 10 8 10 9 10 11 12 13 13 13
-1 -1 -1 -2 -2 -3 -4 -5 -5 -5 -8 -10 -12 -12 -12 0 -5 -4 -13 -14 -10 -5 -2 0 -2 -1 1 1 2 6 8 6 5 5 5 9 11 10 12 13 12 12 12 13 13
-0 -2 -2 -2 -2 -3 -4 -5 -6 -5 -6 -8 -12 -12 -9 -2 -9 -6 -7 -4 -6 -4 -4 -2 -2 -1 -1 1 2 3 7 7 5 4 3 4 5 8 11 12 12 13 13 12 12
0 -2 -2 -2 -3 -3 -4 -5 -6 -6 -6 -7 -10 -12 0 -3 -9 -9 -8 -7 -5 -3 -3 -1 -2 -2 -1 1 0 1 4 3 5 3 4 5 7 7 11 11 12 12 13 13 13
-0 -3 -3 -3 -3 -3 -4 -5 -6 -7 -6 -7 -9 -11 0 -9 -7 -8 -9 -9 -4 -5 -3 -3 -3 -3 -2 -1 -1 1 1 6 6 4 4 4 10 13 10 8 12 12 12 12 13
-1 -3 -4 -3 -4 -5 -5 -6 -6 -7 -6 -7 -8 -1 -2 -8 -10 -10 -11 -9 -7 -3 -4 -3 -5 -2 -1 -1 -0 0 4 6 7 4 5 6 9 11 10 7 10 12 12 12 13
-2 -4 -3 -3 -6 -7 -7 -6 -7 -7 -6 -7 -3 2 -1 -7 -13 -16 -14 -10 -11 -6 -2 -2 -2 -0 -0 1 3 5 4 7 6 6 3 2 2 8 8 7 9 12 12 13 13
-3 -4 -4 -6 -8 -8 -8 -4 5 5 5 -2 -2 -9 -10 -12 -11 -12 -11 -11 -10 -10 -7 -5 -1 2 0 -0 -2 -0 5 6 4 3 3 2 1 -0 -1 5 5 11 12 13 13
-4 -4 -5 -9 -9 -8 -7 4 2 2 2 1 -2 -4 -9 -10 -10 -10 -10 -10 -11 -10 -10 -9 -5 -4 -3 -2 -1 -0 1 3 1 -2 1 1 2 0 -1 0 4 4 12 13 14
-4 -4 -8 -8 -7 -5 -1 2 2 1 -1 -4 -2 -6 -7 -9 -9 -11 -13 -11 -11 -10 -11 -10 -11 -11 -8 -8 -3 -1 -0 0 1 1 2 -0 3 4 0 -0 4 2 6 12 13
-4 -5 -7 -3 1 3 1 3 1 2 0 -5 -5 -7 -9 -9 -10 -12 -12 -11 -13 -12 -11 -11 -12 -12 -13 -13 -12 -2 -3 -1 -1 3 4 -0 7 6 5 3 2 0 1 7 13
-4 -6 -3 -1 3 3 5 2 2 1 6 -6 -8 -8 -8 -6 -11 -12 -12 -11 -12 -14 -13 -12 -12 -12 -12 -13 -15 -9 -5 -2 -2 0 0 0 2 2 5 5 1 2 3 5 11
-5 -3 2 3 0 0 2 2 1 1 -0 -7 -7 -6 -8 -8 -10 -12 -12 -11 -13 -13 -14 -13 -14 -13 -13 -13 -14 -13 -8 -4 -1 1 3 0 1 8 14 12 2 2 2 5 8
-4 2 2 1 5 3 2 2 2 1 -8 -6 -6 -9 -9 -8 -9 -11 -10 -10 -10 -8 -9 -11 -12 -14 -14 -13 -13 -13 -8 -1 2 4 2 -2 1 5 5 4 1 2 3 4 5
2 3 2 -1 5 3 3 2 5 -4 -9 -7 -7 -7 -7 -10 -9 -11 -9 -9 -11 -10 -10 -9 -9 -12 -14 -13 -11 -12 -11 -2 3 2 2 -0 3 6 3 2 -2 -2 2 2 3
4 4 2 6 -1 3 3 2 -1 -5 -5 -6 -6 -6 -6 -7 -7 -9 -10 -9 -12 -12 -9 -9 -10 -13 -13 -14 -13 -12 -10 -11 -8 -7 -2 5 8 5 5 -1 -2 -3 -2 1 2
5 7 3 3 3 3 2 3 0 -5 -5 -5 -3 -7 -7 -7 -8 -7 -7 -11 -11 -12 -12 -10 -7 -11 -13 -15 -14 -14 -14 -10 -11 -2 -0 2 9 12 6 1 -2 -2 -3 -1 0
5 7 4 2 2 2 3 -0 -2 -5 -7 -7 -6 -6 -5 -5 -5 -6 -9 -11 -12 -12 -12 -11 -10 -9 -12 -12 -12 -13 -13 -13 -13 -11 -7 -2 7 3 7 2 0 -3 -3 -1 1
6 6 4 2 1 0 1 -1 -2 -3 -5 -6 -8 -4 -3 -3 -4 -4 -5 -10 -12 -12 -11 -12 -10 -7 -10 -12 -13 -13 -13 -14 -9 -6 -9 -7 1 1 2 -1 -3 -3 -2 3 4
7 5 5 3 4 4 1 -1 -1 -2 -3 -3 -4 -8 -7 -4 -2 -3 -3 -8 -9 -10 -10 -11 -9 -6 -8 -12 -12 -12 -13 -14 -14 -14 -1 -3 -2 -2 1 1 -4 -4 3 5 3
7 5 4 3 0 1 2 1 2 -0 -1 -3 -1 -3 -5 -3 -3 -1 1 -5 -5 -4 -2 -1 -6 -7 -8 -8 -10 -10 -10 -11 -14 -10 -10 -8 -3 3 2 1 -3 -4 -4 4 5
5 5 4 5 3 2 0 1 2 2 -0 -0 1 -0 -1 0 -0 -1 -2 -2 1 7 4 -2 -3 -8 -9 -11 -11 -11 -11 -12 -11 -13 -9 -9 -6 1 5 2 -1 -6 -2 0 3
1 3 0 1 -2 -1 -1 -1 0 -1 1 1 3 2 0 -0 -0 -0 -1 3 10 8 7 4 2 -6 -7 -10 -10 -11 -12 -12 -11 -11 -12 -10 -8 1 2 -0 -0 -3 -3 -2 -2
1 0 0 -1 -3 -3 -1 -1 -2 -1 -1 0 1 3 5 0 -0 2 3 5 10 9 10 10 8 9 -1 -7 -8 -6 -10 -11 -11 -11 -11 -9 -7 -5 0 -0 1 5 5 5 4
Wind_Speed
7 7 7 7 7 7 7 6 6 6 6 7 7 9 10 10 9 10 7 8 10 8 10 2 11 11 11 13 13 17 9 5 3 9 9 15 2 18 17 10 13 11 19 28 29
7 6 7 7 8 7 6 7 6 6 7 7 8 9 9 11 12 15 14 15 14 11 12 9 10 9 13 15 8 9 1 8 6 10 5 5 10 18 9 23 13 17 21 27 29
8 7 6 7 7 8 8 7 6 7 7 7 8 8 8 8 11 16 17 15 12 12 13 14 15 13 17 16 9 11 12 24 23 10 11 19 16 30 29 12 28 19 25 27 27
9 8 8 7 8 8 8 8 7 7 7 7 7 7 7 5 4 2 11 13 12 13 15 12 13 16 17 9 11 4 11 7 6 4 9 11 22 13 3 15 21 21 24 26 25
9 9 8 8 8 8 9 8 8 8 7 7 7 7 5 8 15 10 8 11 13 14 16 14 16 16 15 2 10 11 7 17 5 3 11 17 26 10 42 27 19 21 23 24 22
9 9 9 9 9 8 8 8 8 8 8 6 6 6 5 12 3 5 2 7 11 14 16 15 16 16 19 6 8 4 15 24 4 9 12 4 4 14 23 21 18 19 21 21 21
9 9 9 9 9 10 9 9 8 8 7 7 6 6 10 20 6 6 8 10 11 15 17 16 17 19 16 15 12 9 7 13 13 9 3 7 10 14 11 12 18 18 18 19 19
9 10 10 10 10 10 10 9 8 7 7 6 5 5 10 5 17 15 12 12 12 13 16 17 14 14 22 20 8 14 14 14 10 6 19 7 1 19 12 10 20 19 17 18 18
10 10 11 11 10 10 10 9 8 7 6 4 2 4 15 10 15 15 15 15 15 14 14 14 9 17 19 15 11 15 14 14 9 13 17 11 7 16 33 30 18 23 20 19 19
9 10 10 10 10 10 8 8 7 7 6 6 8 8 19 14 11 16 17 15 15 17 17 15 15 14 15 15 13 8 12 15 6 9 13 9 13 21 29 16 24 19 23 23 23
8 9 9 9 9 9 6 5 5 4 13 16 9 14 3 7 5 14 16 16 17 18 17 21 14 17 20 19 19 15 3 14 13 10 6 7 11 11 10 26 9 26 24 25 26
9 8 9 8 7 6 1 2 5 6 11 21 21 18 7 5 10 16 18 21 20 17 17 17 19 20 21 21 20 20 18 12 9 9 3 8 11 13 15 15 8 17 27 27 24
9 9 9 7 5 3 3 9 6 9 8 17 26 23 16 14 15 15 22 23 17 19 20 19 20 21 19 18 20 20 19 8 14 3 11 10 14 16 15 14 18 13 15 27 28
9 9 8 5 1 2 4 4 6 6 6 12 15 15 20 17 17 20 21 22 21 21 21 20 21 21 14 15 18 20 18 12 16 7 10 10 10 8 12 16 14 18 17 19 25
10 9 8 5 2 2 3 5 6 3 5 14 13 7 13 15 2 21 19 20 22 21 19 21 22 21 19 14 16 19 13 17 13 13 12 20 11 8 7 13 10 4 8 12 24
11 10 6 2 4 6 6 6 3 6 10 9 11 11 15 19 19 10 20 18 22 20 19 20 26 22 17 17 17 14 18 19 15 11 11 17 17 7 7 27 4 11 10 15 19
11 8 5 6 4 3 4 4 6 9 4 10 12 14 15 16 18 12 15 16 16 14 18 20 20 21 18 17 15 17 17 12 14 12 12 20 17 8 14 3 10 14 16 16 16
9 5 5 7 4 5 3 7 8 9 13 8 3 11 16 17 17 19 16 15 20 21 14 17 16 19 20 16 18 19 19 14 13 15 16 20 9 8 7 29 10 11 19 19 18
5 2 4 4 6 5 9 9 9 8 8 4 7 9 12 14 15 16 19 17 18 20 21 16 18 18 23 20 19 21 19 18 21 22 15 4 4 26 25 9 12 6 16 21 21
2 6 4 6 7 5 8 15 19 6 6 7 11 16 15 16 13 15 14 17 20 19 21 20 18 18 11 21 20 20 19 16 12 17 20 7 10 8 20 10 10 7 10 14 17
6 7 6 7 7 9 9 14 5 6 5 7 13 17 12 16 6 10 18 14 15 17 18 19 17 18 14 14 16 16 17 20 18 15 15 15 6 8 27 13 14 8 3 14 16
7 5 8 8 9 12 11 12 8 9 11 8 12 14 16 17 9 13 18 8 6 15 17 18 12 15 23 16 19 18 21 22 14 18 15 14 5 7 12 5 9 10 16 17 14
7 4 6 9 7 9 13 6 10 9 12 9 10 12 15 15 15 12 18 17 2 3 7 14 12 14 20 18 18 13 19 21 19 21 16 15 10 10 7 11 11 13 20 19 17
7 3 8 12 16 14 14 11 10 9 7 15 14 13 14 13 13 16 17 16 8 8 9 13 17 16 15 18 16 16 19 22 24 15 17 19 15 5 16 13 9 9 10 22 19
7 5 11 4 8 10 10 12 10 13 8 9 8 14 16 14 15 17 18 17 4 18 8 12 18 20 22 20 20 22 20 21 21 23 20 23 20 20 10 6 13 13 10 8 13
9 10 17 17 17 13 8 12 13 15 11 14 12 12 14 15 18 17 16 11 6 7 5 11 15 18 20 21 21 22 24 23 23 23 22 25 22 9 17 7 9 8 9 6 7
12 9 11 12 14 11 10 10 13 11 11 17 14 10 18 12 11 17 19 4 10 4 5 9 12 12 20 20 20 22 24 24 22 21 23 23 21 12 17 14 9 14 8 4 4
Wind_Direction
334 331 332 334 337 335 331 327 316 308 300 292 287 282 284 279 271 265 251 235 239 240 224 278 256 262 266 261 263 37 15 314 99 28 345 135 308 73 2 103 71 44 136 146 147
328 325 322 321 323 323 323 318 314 304 296 293 291 288 287 287 279 262 246 249 248 231 224 253 246 238 251 244 162 105 66 279 186 192 198 150 155 110 104 349 98 92 115 139 149
324 324 314 311 311 311 315 309 306 304 297 292 288 285 288 296 299 247 229 240 229 222 229 260 284 284 266 260 192 145 186 232 266 3 116 33 23 122 110 156 244 132 140 147 153
324 322 316 308 301 305 306 305 302 300 298 293 286 282 282 269 263 188 211 225 223 224 233 255 267 270 266 263 233 248 190 271 10 111 74 85 284 281 212 104 117 141 148 152 161
322 318 314 307 301 296 297 302 300 299 298 296 288 282 276 259 262 263 257 218 221 224 232 246 264 262 271 359 302 244 38 299 198 261 245 167 206 98 27 340 115 138 152 160 167
322 315 312 309 303 295 294 294 294 294 297 295 286 275 267 249 213 262 188 224 217 224 237 244 262 273 310 302 288 341 178 238 283 225 254 253 287 71 132 242 134 147 158 166 175
316 313 309 306 302 300 298 294 291 285 287 286 277 268 263 234 240 235 238 229 225 229 236 243 254 280 263 289 238 276 265 253 1 296 187 251 350 68 287 207 147 158 165 172 179
315 315 313 310 308 305 299 296 291 285 283 275 274 269 262 254 243 255 231 231 230 230 236 255 270 264 276 284 256 262 257 252 206 313 293 269 260 66 331 247 160 163 169 179 186
312 312 314 314 312 306 300 297 289 283 271 253 238 267 258 235 240 230 223 225 229 233 239 246 267 258 254 254 269 240 245 231 179 207 251 234 204 171 209 229 209 160 170 182 189
309 309 313 315 312 307 302 295 283 265 253 236 234 258 244 242 233 215 217 221 232 227 235 235 244 247 243 258 244 305 265 343 234 225 228 262 287 180 204 180 201 172 174 181 184
310 310 315 315 313 310 306 296 304 229 214 219 202 223 141 206 161 202 209 216 226 234 229 228 236 236 240 243 262 271 181 230 279 196 202 273 284 294 280 197 189 178 178 178 186
313 316 318 316 312 306 301 261 7 323 292 250 245 238 249 240 235 225 210 211 216 231 222 235 228 240 249 260 261 261 264 257 221 257 247 260 272 278 282 263 144 207 171 177 185
316 322 322 323 332 355 269 297 306 329 261 270 218 227 228 228 241 218 201 209 217 228 232 232 239 220 241 253 258 266 259 255 262 136 262 254 253 249 250 262 181 223 187 178 178
317 322 320 325 57 313 275 267 319 317 277 207 191 229 221 218 242 233 202 215 228 230 234 249 239 262 224 234 256 251 259 258 283 279 276 264 280 180 228 266 199 219 193 181 170
317 319 315 291 247 30 300 321 303 273 274 134 154 147 184 198 275 202 209 210 227 229 232 242 244 254 258 250 253 259 269 250 233 271 273 266 259 217 193 234 218 123 157 165 158
315 315 307 281 269 249 316 305 302 232 246 156 150 194 207 204 244 208 207 213 224 240 248 245 262 249 238 252 254 277 260 266 262 241 255 267 265 118 118 269 349 138 150 157 170
313 306 267 234 121 293 275 257 225 245 102 156 180 191 202 201 218 219 194 205 223 224 240 249 242 260 246 252 240 239 244 245 246 231 243 247 256 173 180 208 258 145 153 164 174
312 294 262 221 245 281 246 236 249 231 230 48 359 182 213 221 192 222 208 222 218 244 246 225 236 221 246 225 250 234 238 241 238 252 251 241 223 116 334 194 162 184 165 168 177
318 297 267 310 219 205 240 230 235 324 1 22 265 248 238 235 238 195 219 226 225 213 248 258 241 230 211 212 226 249 243 248 263 270 271 152 357 347 316 162 158 220 188 174 187
274 242 178 208 191 187 241 259 292 18 345 322 280 282 246 204 212 242 230 223 244 225 218 253 272 282 245 203 220 237 259 236 235 264 273 231 161 195 251 194 211 180 202 196 183
255 238 166 160 172 228 247 244 290 25 287 271 272 290 288 294 271 218 241 243 227 235 237 237 245 262 254 211 223 220 235 254 269 236 249 266 233 286 234 178 163 186 189 179 141
281 274 167 165 220 230 243 263 12 293 280 247 272 284 301 300 293 264 267 242 287 215 252 239 242 244 256 249 218 225 244 226 245 250 263 262 244 94 37 193 190 214 134 105 114
271 256 197 201 252 250 264 230 267 270 271 258 254 254 271 263 274 270 276 258 6 259 266 271 220 255 263 247 243 235 234 255 241 250 247 250 254 160 137 195 217 201 132 145 148
288 276 158 217 251 285 288 311 280 238 248 287 295 281 273 263 269 276 280 262 226 226 283 299 276 248 243 246 259 228 225 235 249 244 255 262 255 111 219 222 213 202 216 150 156
252 330 341 277 242 252 258 286 297 296 259 233 259 247 271 270 259 251 251 278 29 16 336 256 259 265 271 270 268 265 261 216 236 252 248 254 264 174 165 81 239 182 103 100 149
314 349 338 303 288 276 272 266 272 278 276 271 239 255 250 235 262 275 289 305 39 1 322 319 270 262 268 266 260 262 266 262 218 228 251 264 271 93 115 46 277 192 166 165 166
346 314 292 290 292 286 273 295 311 312 288 292 301 288 281 285 298 310 313 338 163 170 357 15 327 311 251 251 257 252 246 258 258 225 222 246 258 230 83 318 156 115 126 162 170
Height
1506 1505 1503 1502 1500 1499 1498 1497 1495 1494 1493 1493 1492 1491 1490 1490 1490 1489 1489 1490 1488 1488 1487 1488 1488 1486 1485 1483 1480 1480 1500 1495 1472 1475 1474 1465 1465 1467 1476 1476 1479 1480 1478 1486 1495
1506 1505 1503 1502 1500 1499 1499 1497 1495 1494 1493 1492 1491 1490 1489 1489 1488 1486 1487 1487 1487 1487 1487 1488 1485 1483 1481 1476 1476 1494 1522 1503 1472 1466 1468 1464 1466 1469 1488 1495 1483 1489 1490 1492 1495
1506 1504 1503 1502 1500 1499 1497 1497 1495 1494 1493 1492 1491 1490 1489 1489 1486 1483 1482 1485 1486 1486 1486 1487 1485 1481 1475 1467 1468 1487 1500 1482 1469 1463 1467 1474 1469 1474 1486 1508 1490 1491 1491 1493 1496
1504 1503 1502 1501 1500 1498 1497 1496 1495 1493 1492 1492 1491 1490 1489 1490 1486 1480 1481 1483 1485 1485 1486 1488 1484 1478 1470 1463 1462 1468 1468 1463 1464 1465 1466 1466 1478 1474 1470 1473 1482 1490 1492 1493 1496
1504 1503 1502 1501 1499 1498 1497 1495 1494 1493 1492 1492 1490 1490 1490 1490 1483 1480 1481 1482 1483 1484 1484 1487 1482 1475 1467 1462 1464 1461 1466 1464 1463 1466 1463 1465 1470 1471 1475 1481 1481 1487 1491 1492 1495
1504 1502 1501 1499 1498 1498 1497 1496 1494 1493 1492 1491 1490 1490 1490 1489 1481 1480 1481 1482 1483 1483 1484 1486 1481 1474 1470 1464 1466 1465 1465 1464 1462 1461 1460 1460 1461 1469 1480 1480 1481 1486 1489 1490 1493
1502 1501 1500 1498 1497 1496 1495 1494 1493 1492 1491 1490 1489 1489 1489 1482 1481 1482 1482 1482 1483 1484 1483 1483 1481 1477 1470 1464 1463 1464 1465 1459 1463 1459 1457 1460 1467 1476 1489 1472 1479 1483 1486 1489 1492
1500 1499 1498 1497 1496 1495 1493 1492 1491 1490 1490 1490 1489 1489 1485 1478 1480 1481 1481 1481 1482 1482 1482 1480 1479 1478 1473 1466 1462 1464 1460 1469 1465 1462 1460 1460 1482 1481 1482 1469 1470 1473 1481 1487 1491
1500 1498 1497 1496 1494 1493 1492 1491 1490 1489 1489 1489 1490 1490 1482 1475 1477 1478 1480 1480 1480 1481 1481 1481 1481 1479 1473 1468 1469 1460 1469 1464 1467 1461 1457 1455 1467 1468 1465 1468 1455 1461 1474 1482 1489
1499 1497 1496 1495 1493 1492 1491 1490 1489 1488 1488 1488 1488 1492 1475 1473 1472 1474 1477 1479 1478 1479 1479 1480 1479 1475 1470 1467 1483 1474 1466 1469 1462 1458 1453 1457 1454 1455 1457 1459 1452 1460 1469 1476 1483
1497 1496 1494 1493 1492 1490 1490 1489 1490 1488 1488 1479 1476 1472 1469 1470 1471 1473 1475 1477 1477 1475 1474 1474 1477 1477 1467 1459 1454 1453 1458 1468 1455 1450 1454 1457 1455 1449 1446 1451 1450 1457 1463 1471 1476
1495 1494 1493 1492 1491 1490 1489 1489 1489 1490 1482 1474 1473 1471 1470 1470 1470 1471 1474 1474 1474 1472 1470 1471 1473 1465 1459 1454 1453 1450 1455 1457 1448 1443 1450 1453 1456 1448 1443 1441 1446 1444 1455 1465 1473
1495 1493 1492 1491 1490 1490 1490 1491 1489 1489 1481 1464 1464 1466 1468 1470 1467 1463 1467 1469 1468 1470 1465 1468 1460 1455 1456 1456 1457 1452 1452 1452 1454 1446 1447 1450 1456 1448 1440 1440 1443 1443 1448 1456 1465
1494 1493 1492 1491 1492 1490 1491 1490 1490 1489 1480 1452 1458 1460 1462 1464 1462 1460 1461 1467 1467 1465 1463 1459 1454 1450 1450 1457 1453 1460 1441 1447 1448 1460 1471 1442 1470 1448 1440 1437 1435 1437 1443 1449 1460
1493 1492 1491 1491 1491 1491 1492 1490 1489 1489 1487 1446 1451 1455 1457 1461 1452 1456 1457 1462 1461 1459 1459 1460 1455 1452 1453 1451 1447 1452 1440 1443 1445 1451 1456 1451 1456 1436 1438 1445 1434 1434 1439 1446 1456
1492 1491 1490 1491 1490 1490 1490 1490 1490 1488 1478 1446 1446 1452 1453 1456 1451 1450 1455 1459 1458 1456 1452 1451 1446 1443 1445 1443 1446 1444 1446 1443 1442 1448 1472 1452 1448 1465 1481 1481 1433 1434 1440 1445 1452
1491 1489 1489 1489 1491 1491 1491 1491 1487 1479 1436 1443 1443 1443 1448 1448 1452 1447 1453 1456 1460 1469 1465 1452 1448 1442 1440 1447 1444 1446 1454 1474 1477 1472 1473 1436 1442 1437 1437 1435 1431 1431 1438 1444 1449
1489 1488 1487 1487 1488 1490 1492 1488 1487 1439 1437 1432 1434 1437 1443 1438 1441 1446 1449 1456 1450 1451 1450 1459 1462 1443 1440 1446 1451 1448 1448 1465 1489 1478 1457 1424 1449 1447 1435 1428 1427 1431 1433 1439 1445
1488 1487 1485 1487 1486 1490 1490 1482 1463 1445 1440 1440 1438 1446 1441 1437 1436 1438 1442 1443 1442 1445 1457 1449 1445 1422 1429 1435 1444 1447 1448 1435 1450 1439 1450 1446 1451 1430 1426 1417 1422 1426 1427 1433 1438
1488 1488 1487 1488 1488 1490 1486 1477 1456 1451 1453 1451 1459 1440 1441 1430 1437 1438 1435 1432 1435 1432 1435 1439 1452 1425 1419 1425 1432 1438 1433 1451 1447 1477 1476 1453 1463 1476 1442 1423 1420 1423 1425 1428 1432
1488 1485 1484 1485 1488 1488 1478 1460 1450 1453 1458 1459 1456 1447 1438 1433 1427 1433 1435 1426 1424 1427 1427 1429 1437 1438 1423 1428 1437 1439 1444 1438 1434 1439 1462 1463 1457 1433 1436 1415 1417 1420 1423 1424 1430
1489 1481 1483 1485 1486 1476 1467 1455 1458 1458 1457 1458 1456 1452 1447 1439 1436 1436 1434 1424 1422 1423 1431 1425 1433 1446 1434 1418 1417 1424 1429 1432 1446 1453 1434 1435 1439 1412 1412 1415 1415 1416 1420 1427 1433
1487 1476 1481 1483 1479 1465 1456 1453 1457 1457 1454 1454 1453 1451 1448 1446 1450 1439 1431 1424 1424 1427 1431 1427 1433 1453 1444 1426 1416 1424 1423 1423 1421 1422 1434 1441 1429 1406 1413 1416 1414 1415 1421 1427 1432
1489 1471 1475 1479 1475 1471 1462 1455 1453 1451 1455 1455 1450 1448 1447 1446 1441 1442 1432 1424 1425 1431 1434 1434 1433 1434 1446 1433 1417 1424 1420 1420 1423 1430 1431 1422 1415 1422 1426 1415 1414 1416 1420 1424 1430
1488 1472 1471 1468 1463 1460 1457 1456 1457 1456 1449 1451 1451 1451 1449 1449 1445 1440 1434 1428 1429 1442 1436 1434 1441 1432 1424 1417 1415 1413 1411 1412 1422 1419 1427 1412 1407 1403 1405 1408 1415 1416 1422 1425 1429
1489 1486 1480 1475 1466 1465 1460 1460 1458 1453 1449 1449 1448 1445 1441 1446 1443 1439 1430 1435 1453 1451 1449 1441 1441 1432 1432 1420 1414 1417 1408 1402 1404 1411 1412 1408 1407 1401 1414 1413 1422 1419 1421 1425 1426
1493 1491 1487 1477 1468 1459 1454 1452 1451 1449 1450 1447 1445 1445 1443 1436 1436 1437 1438 1440 1449 1454 1460 1460 1462 1457 1440 1422 1420 1423 1410 1404 1400 1395 1404 1415 1400 1398 1408 1414 1414 1418 1423 1427 1428